Stations météo

réclame
Mon MeteoGroup
Twenthe, Pays-Bas (6290): Température de l'air & dewpoint: 14.04.2018 22:00:00 - 20.04.2018 22:00:00 (CEST)Twenthe, Pays-Bas (6290): Température de l'air 5cm: 14.04.2018 22:00:00 - 20.04.2018 22:00:00 (CEST)Twenthe, Pays-Bas (6290): Vitesse du vent & gusts: 14.04.2018 22:00:00 - 20.04.2018 22:00:00 (CEST)Twenthe, Pays-Bas (6290): Direction du vent: 14.04.2018 22:00:00 - 20.04.2018 22:00:00 (CEST)Twenthe, Pays-Bas (6290): reduced air pressure: 14.04.2018 22:00:00 - 20.04.2018 22:00:00 (CEST)Twenthe, Pays-Bas (6290): visibility: 14.04.2018 22:00:00 - 20.04.2018 22:00:00 (CEST)Twenthe, Pays-Bas (6290): Quantités de précipitations: 14.04.2018 22:00:00 - 20.04.2018 22:00:00 (CEST)
Date & Time tt [°C] td [°C] tt 5cm [°C] ff [km/h] ff [knt] fx [km/h] fx [knt] dd ppp [hPa] vv [km] rr [mm]
20.04.2018 22:00:00 - - - - - - - - - - -
20.04.2018 21:00:00 20,3 8,5 15,0 7 4 14 8 NW 1021,1 27 0,0
20.04.2018 20:00:00 22,0 10,7 20,0 7 4 22 12 NNW 1020,7 16 0,0
20.04.2018 19:00:00 23,9 11,9 23,3 14 8 25 14 NW 1020,6 13 0,0
20.04.2018 18:00:00 25,6 11,7 25,8 18 10 25 14 NW 1020,6 21 0,0
20.04.2018 17:00:00 26,7 11,5 25,7 11 6 - - WNW 1020,7 36 0,0
20.04.2018 16:00:00 27,7 10,9 28,8 14 8 25 14 SW 1021,2 30 0,0
20.04.2018 15:00:00 26,9 10,6 28,7 18 10 32 18 SW 1021,8 24 0,0
20.04.2018 14:00:00 27,0 11,6 28,5 18 10 29 16 SW 1022,1 31 0,0
20.04.2018 13:00:00 26,0 12,2 27,8 14 8 25 14 SW 1022,6 23 0,0
20.04.2018 12:00:00 25,1 11,8 26,5 14 8 25 14 WSW 1022,8 19 0,0
20.04.2018 11:00:00 24,1 11,7 24,9 11 6 18 10 SW 1022,8 16 0,0
20.04.2018 10:00:00 21,7 9,8 22,5 11 6 14 8 S 1022,7 19 0,0
20.04.2018 09:00:00 19,3 8,3 19,0 7 4 11 6 S 1022,6 25 0,0
20.04.2018 08:00:00 16,9 7,5 14,5 7 4 11 6 S 1022,7 26 0,0
20.04.2018 07:00:00 14,1 5,8 6,7 4 2 14 8 S 1022,6 39 0,0
20.04.2018 06:00:00 12,4 6,2 6,5 7 4 11 6 SSE 1022,5 46 0,0
20.04.2018 05:00:00 15,5 5,9 11,6 11 6 18 10 SSE 1022,9 49 0,0
20.04.2018 04:00:00 14,6 6,7 10,0 11 6 14 8 SSE 1023,1 48 0,0
20.04.2018 03:00:00 15,5 7,2 9,2 7 4 14 8 SE 1023,5 45 0,0
20.04.2018 02:00:00 17,0 7,3 13,1 7 4 14 8 SE 1023,9 42 0,0
20.04.2018 01:00:00 18,3 7,3 14,9 11 6 18 10 SE 1024,1 45 0,0
20.04.2018 00:00:00 19,4 7,6 16,7 14 8 22 12 SE 1024,3 44 0,0
19.04.2018 23:00:00 20,2 7,1 16,5 11 6 22 12 ESE 1024,3 45 0,0
19.04.2018 22:00:00 21,6 6,6 17,1 11 6 22 12 E 1024,6 48 0,0
19.04.2018 21:00:00 22,8 6,1 18,1 11 6 18 10 E 1024,5 49 0,0
19.04.2018 20:00:00 25,2 5,1 22,1 11 6 22 12 E 1024,4 41 0,0
19.04.2018 19:00:00 26,9 6,0 25,4 14 8 22 12 ESE 1024,7 41 0,0
19.04.2018 18:00:00 27,4 5,4 26,4 18 10 25 14 SE 1025,2 42 0,0
19.04.2018 17:00:00 28,0 5,3 28,4 18 10 29 16 SE 1025,6 44 0,0
19.04.2018 16:00:00 28,6 6,0 29,5 18 10 25 14 ESE 1026,1 42 0,0
19.04.2018 15:00:00 28,0 6,0 29,5 14 8 25 14 ESE 1026,7 30 0,0
19.04.2018 14:00:00 27,2 8,0 29,2 14 8 22 12 SE 1027,2 24 0,0
19.04.2018 13:00:00 26,4 8,6 28,1 14 8 22 12 ESE 1027,7 31 0,0
19.04.2018 12:00:00 25,2 10,1 27,4 14 8 22 12 ESE 1028,2 23 0,0
19.04.2018 11:00:00 23,3 8,5 25,0 14 8 22 12 SE 1028,4 23 0,0
19.04.2018 10:00:00 20,9 9,4 22,5 7 4 14 8 ESE 1028,6 23 0,0
19.04.2018 09:00:00 18,0 8,9 18,1 11 6 18 10 SE 1028,5 17 0,0
19.04.2018 08:00:00 15,5 8,4 14,7 11 6 - - SE 1028,2 16 0,0
19.04.2018 07:00:00 14,5 8,3 12,1 14 8 18 10 ESE 1028,1 13 0,0
19.04.2018 06:00:00 14,3 8,8 11,9 11 6 18 10 ESE 1028,1 12 0,0
19.04.2018 05:00:00 14,7 9,1 12,4 11 6 18 10 ESE 1028,3 11 0,0
19.04.2018 04:00:00 15,4 9,4 13,5 14 8 22 12 ESE 1028,6 11 0,0
19.04.2018 03:00:00 15,3 9,4 13,2 11 6 22 12 ESE 1029,0 11 0,0
19.04.2018 02:00:00 16,6 9,1 14,6 14 8 22 12 E 1029,4 13 0,0
19.04.2018 01:00:00 17,5 8,8 15,1 14 8 18 10 E 1029,6 15 0,0
19.04.2018 00:00:00 18,0 8,5 15,4 14 8 18 10 E 1029,7 15 0,0
18.04.2018 23:00:00 18,0 8,5 10,5 11 6 14 8 E 1029,7 20 0,0
18.04.2018 22:00:00 12,7 9,1 7,9 4 2 7 4 E 1029,9 27 0,0
18.04.2018 21:00:00 15,1 8,7 10,2 7 4 7 4 E 1029,7 31 0,0
18.04.2018 20:00:00 22,1 7,7 18,1 4 2 18 10 E 1029,7 27 0,0
18.04.2018 19:00:00 23,7 8,1 22,9 4 2 14 8 E 1029,7 23 0,0
18.04.2018 18:00:00 24,1 6,0 24,4 11 6 18 10 SE 1029,9 28 0,0
18.04.2018 17:00:00 24,5 4,9 25,6 11 6 18 10 ESE 1030,2 21 0,0
18.04.2018 16:00:00 24,2 5,1 26,1 7 4 18 10 SSE 1030,6 27 0,0
18.04.2018 15:00:00 24,0 6,1 25,8 4 2 22 12 E 1031,1 23 0,0
18.04.2018 14:00:00 23,1 5,2 25,4 7 4 22 12 S 1031,4 28 0,0
18.04.2018 13:00:00 22,3 5,9 24,8 7 4 18 10 E 1031,6 22 0,0
18.04.2018 12:00:00 22,0 7,3 23,8 11 6 18 10 S 1031,9 23 0,0
18.04.2018 11:00:00 20,7 7,4 22,5 7 4 14 8 S 1031,9 22 0,0
18.04.2018 10:00:00 19,6 8,1 20,6 4 2 7 4 SSE 1031,5 22 0,0
18.04.2018 09:00:00 15,8 10,4 14,9 4 2 7 4 SSE 1031,4 11 0,0
18.04.2018 08:00:00 9,3 8,6 8,6 0 0 4 2 N 1030,8 3,2 0,0
18.04.2018 07:00:00 5,4 5,3 0,5 4 2 4 2 E 1030,1 0,3 0,0
18.04.2018 06:00:00 5,9 5,9 0,6 4 2 4 2 E 1029,7 0,1 0,0
18.04.2018 05:00:00 6,0 5,9 0,7 0 0 4 2 N 1029,3 0,2 0,0
18.04.2018 04:00:00 6,2 6,0 0,9 4 2 4 2 ESE 1028,8 1,2 0,0
18.04.2018 03:00:00 7,1 7,0 2,1 4 2 4 2 ESE 1028,5 5 0,0
18.04.2018 02:00:00 6,9 6,3 1,9 4 2 4 2 ESE 1028,3 8 0,0
18.04.2018 01:00:00 8,4 7,5 3,0 4 2 7 4 W 1027,9 11 0,0
18.04.2018 00:00:00 9,0 8,0 3,9 0 0 4 2 N 1027,4 15 0,0
17.04.2018 23:00:00 9,4 7,9 5,0 0 0 4 2 N 1027,1 17 0,0
17.04.2018 22:00:00 11,0 8,3 5,7 0 0 7 4 N 1026,8 22 0,0
17.04.2018 21:00:00 14,5 8,3 9,6 7 4 7 4 SSE 1026,2 26 0,0
17.04.2018 20:00:00 17,2 7,4 14,5 7 4 14 8 S 1025,6 22 0,0
17.04.2018 19:00:00 19,4 7,9 18,8 11 6 22 12 SSW 1025,5 25 0,0
17.04.2018 18:00:00 20,1 7,3 19,9 11 6 22 12 SW 1025,4 20 0,0
17.04.2018 17:00:00 19,8 7,5 20,6 11 6 25 14 SSW 1025,0 23 0,0
17.04.2018 16:00:00 19,7 6,9 21,0 14 8 40 21 SW 1024,8 23 0,0
17.04.2018 15:00:00 20,3 6,8 21,7 14 8 43 23 SW 1025,0 25 0,0
17.04.2018 14:00:00 19,1 6,0 21,3 18 10 32 18 S 1025,1 25 0,0
17.04.2018 13:00:00 18,6 6,3 20,3 18 10 36 19 SSW 1025,2 22 0,0
17.04.2018 12:00:00 17,7 6,6 19,3 22 12 32 18 S 1025,2 21 0,0
17.04.2018 11:00:00 17,0 8,0 18,4 18 10 29 16 S 1025,1 18 0,0
17.04.2018 10:00:00 14,7 6,9 16,2 14 8 18 10 SSE 1025,2 22 0,0
17.04.2018 09:00:00 12,8 6,9 12,7 7 4 11 6 SE 1024,6 21 0,0
17.04.2018 08:00:00 7,2 6,9 4,0 4 2 7 4 SE 1024,5 7 0,0
17.04.2018 07:00:00 2,8 2,7 -1,6 4 2 4 2 ESE 1023,5 0,3 0,0
17.04.2018 06:00:00 3,3 3,2 -1,5 4 2 4 2 ESE 1023,0 0,2 0,0
17.04.2018 05:00:00 3,6 3,4 -0,8 4 2 4 2 ESE 1022,8 0,4 0,0
17.04.2018 04:00:00 3,2 3,0 -1,3 4 2 4 2 ESE 1022,6 0,2 0,0
17.04.2018 03:00:00 4,2 4,1 -0,9 0 0 4 2 N 1022,3 3,2 0,0
17.04.2018 02:00:00 5,1 5,0 -0,7 4 2 4 2 ESE 1022,1 0,9 0,0
17.04.2018 01:00:00 5,2 5,0 0,1 0 0 7 4 N 1021,6 2,3 0,0
17.04.2018 00:00:00 7,1 6,2 2,0 7 4 7 4 SE 1021,0 14 0,0
16.04.2018 23:00:00 7,6 6,4 2,9 0 0 7 4 N 1020,7 18 0,0
16.04.2018 22:00:00 9,7 7,0 3,8 7 4 14 8 NW 1020,2 19 0,0
16.04.2018 21:00:00 12,4 7,2 10,0 14 8 18 10 NNW 1019,2 23 0,0
16.04.2018 20:00:00 14,7 5,0 13,4 14 8 25 14 W 1018,0 35 0,0
16.04.2018 19:00:00 15,9 4,5 15,8 22 12 29 16 WSW 1017,2 37 0,0
16.04.2018 18:00:00 17,0 5,5 17,9 22 12 29 16 W 1016,6 30 0,0
16.04.2018 17:00:00 16,9 5,8 17,2 14 8 32 18 W 1016,4 35 0,0
16.04.2018 16:00:00 16,5 5,5 16,7 22 12 36 19 W 1016,1 36 0,0
16.04.2018 15:00:00 16,7 7,2 18,4 22 12 36 19 W 1015,4 30 0,0
16.04.2018 14:00:00 17,7 9,2 19,9 18 10 29 16 WSW 1015,3 29 0,0
16.04.2018 13:00:00 16,0 9,9 15,9 18 10 29 16 WSW 1015,1 22 0,0
16.04.2018 12:00:00 16,1 9,0 15,3 14 8 22 12 W 1014,8 24 0,0
16.04.2018 11:00:00 14,8 9,5 16,6 11 6 18 10 WSW 1014,3 26 0,0
16.04.2018 10:00:00 13,8 9,3 14,0 14 8 22 12 W 1013,8 34 0,0
16.04.2018 09:00:00 12,7 10,0 12,0 7 4 14 8 SW 1013,3 12 0,0
16.04.2018 08:00:00 10,6 9,7 8,8 7 4 7 4 SSE 1012,8 10 0,0
16.04.2018 07:00:00 9,2 8,9 6,7 4 2 4 2 SSW 1011,9 8 0,0
16.04.2018 06:00:00 10,3 8,9 7,2 4 2 11 6 S 1011,2 17 0,0
16.04.2018 05:00:00 10,1 8,6 7,3 4 2 7 4 SW 1011,1 26 0,0
16.04.2018 04:00:00 9,3 8,1 5,1 7 4 7 4 SSE 1010,8 24 0,0
16.04.2018 03:00:00 8,6 7,8 5,5 4 2 7 4 SE 1010,6 15 0,0
16.04.2018 02:00:00 8,9 8,1 6,6 7 4 7 4 SSE 1010,6 15 0,0
16.04.2018 01:00:00 10,3 9,1 7,2 0 0 7 4 N 1010,7 19 0,0
16.04.2018 00:00:00 10,6 9,3 7,7 4 2 4 2 SSE 1010,9 20 0,0
15.04.2018 23:00:00 10,9 9,6 7,7 4 2 7 4 SSE 1010,8 43 0,0
15.04.2018 22:00:00 11,9 9,5 9,0 4 2 7 4 WNW 1010,7 50 0,0
15.04.2018 21:00:00 13,4 9,7 10,9 7 4 7 4 SE 1010,9 50 0,0
15.04.2018 20:00:00 16,1 9,0 14,1 4 2 11 6 SSW 1010,6 50 0,0
15.04.2018 19:00:00 17,0 8,8 15,9 11 6 18 10 SSW 1010,4 50 0,0
15.04.2018 18:00:00 17,3 9,1 16,9 7 4 18 10 WSW 1010,2 46 0,0
15.04.2018 17:00:00 18,4 8,1 19,3 7 4 18 10 W 1010,4 44 0,0
15.04.2018 16:00:00 18,4 7,6 20,3 14 8 32 18 S 1010,8 37 0,0
15.04.2018 15:00:00 18,0 8,6 20,1 14 8 25 14 S 1011,4 36 0,0
15.04.2018 14:00:00 17,7 9,5 19,5 14 8 25 14 S 1011,9 37 0,0
15.04.2018 13:00:00 16,7 10,5 16,8 14 8 22 12 S 1012,4 29 0,0
15.04.2018 12:00:00 15,7 11,1 16,8 11 6 25 14 SSE 1012,8 15 0,0
15.04.2018 11:00:00 14,5 11,6 15,3 14 8 25 14 S 1013,2 14 0,0
15.04.2018 10:00:00 11,9 11,1 12,1 11 6 18 10 SSE 1013,7 2,8 0,0
15.04.2018 09:00:00 10,4 10,1 10,3 7 4 14 8 SE 1014,2 1,5 0,1
15.04.2018 08:00:00 9,6 9,2 9,3 11 6 18 10 SE 1014,5 1,5 0,6
15.04.2018 07:00:00 9,1 8,6 8,8 11 6 18 10 SE 1014,6 1,9 1,1
15.04.2018 06:00:00 8,7 8,0 8,5 7 4 18 10 E 1014,7 2,2 0,6
15.04.2018 05:00:00 8,5 7,9 8,4 7 4 11 6 ENE 1015,1 2,4 1,0
15.04.2018 04:00:00 8,9 7,5 8,7 4 2 32 18 E 1016,0 4,9 0,1
15.04.2018 03:00:00 10,0 6,2 9,1 7 4 14 8 ENE 1015,9 8 0,0
15.04.2018 02:00:00 9,8 6,2 8,7 7 4 14 8 ENE 1016,6 9 0,0
15.04.2018 01:00:00 10,2 6,3 8,5 7 4 14 8 E 1017,3 9 0,0
15.04.2018 00:00:00 7,6 5,4 4,6 7 4 11 6 ENE 1017,8 8 0,0
14.04.2018 23:00:00 8,1 6,0 4,6 7 4 11 6 NE 1017,9 9 0,0
14.04.2018 22:00:00 8,0 5,8 5,6 7 4 11 6 NE 1018,1 9 0,0

tt = Température de l'air
td = dewpoint
tt 5cm = Température de l'air 5cm
ff = Vitesse du vent
fx = gusts
dd = Direction du vent
ppp = reduced air pressure
vv = visibility
rr = Quantités de précipitations

stations d'obs. à proximité